TimeCST,TemperatureF,Dew PointF,Humidity,Sea Level PressureIn,VisibilityMPH,Wind Direction,Wind SpeedMPH,Gust SpeedMPH,PrecipitationIn,Events,Conditions,WindDirDegrees,DateUTC
12:54 AM,34.0,27.0,75,29.97,10.0,ENE,12.7,-,N/A,,Overcast,70,2013-02-26 06:54:00
1:54 AM,34.0,27.0,75,29.94,10.0,ENE,12.7,-,N/A,,Overcast,70,2013-02-26 07:54:00
2:54 AM,34.0,28.0,79,29.90,10.0,ENE,11.5,-,N/A,,Overcast,70,2013-02-26 08:54:00
3:54 AM,34.0,27.0,75,29.86,10.0,ENE,13.8,-,N/A,,Overcast,60,2013-02-26 09:54:00
4:54 AM,34.0,27.0,75,29.84,10.0,ENE,16.1,26.5,N/A,,Overcast,60,2013-02-26 10:54:00
5:54 AM,34.0,27.0,75,29.79,10.0,ENE,21.9,26.5,N/A,,Overcast,60,2013-02-26 11:54:00
6:54 AM,34.0,26.1,73,29.78,10.0,ENE,20.7,33.4,N/A,,Overcast,70,2013-02-26 12:54:00
7:54 AM,34.0,26.1,73,29.75,10.0,ENE,19.6,32.2,N/A,,Overcast,60,2013-02-26 13:54:00
8:54 AM,35.1,26.1,70,29.74,10.0,ENE,26.5,33.4,N/A,,Overcast,60,2013-02-26 14:54:00
9:54 AM,35.1,25.0,67,29.70,10.0,NE,26.5,35.7,N/A,,Overcast,50,2013-02-26 15:54:00
10:54 AM,35.1,25.0,67,29.69,10.0,NE,24.2,33.4,N/A,,Overcast,50,2013-02-26 16:54:00
11:54 AM,34.0,25.0,70,29.68,10.0,NE,19.6,29.9,N/A,,Overcast,50,2013-02-26 17:54:00
12:43 PM,33.8,24.8,70,29.62,5.0,NE,21.9,33.4,0.00,Snow,Light Snow,40,2013-02-26 18:43:00
12:54 PM,34.0,26.1,73,29.64,2.0,ENE,21.9,29.9,0.00,Snow,Light Snow,60,2013-02-26 18:54:00
1:01 PM,33.8,26.6,75,29.62,1.0,NE,21.9,38.0,0.00,Snow,Light Snow,50,2013-02-26 19:01:00
1:07 PM,32.0,26.6,80,29.61,0.8,NE,18.4,33.4,0.00,Snow,Light Snow,50,2013-02-26 19:07:00
1:14 PM,32.0,28.4,87,29.60,0.8,NE,21.9,29.9,0.00,Snow,Light Snow,40,2013-02-26 19:14:00
1:30 PM,32.0,28.4,87,29.60,0.8,NE,23.0,31.1,0.01,Snow,Light Snow,40,2013-02-26 19:30:00
1:54 PM,32.0,28.9,88,29.61,0.5,NE,26.5,36.8,0.02,Snow,Snow,40,2013-02-26 19:54:00
2:36 PM,32.0,28.4,87,29.59,0.2,NE,28.8,36.8,0.03,Snow,Snow,40,2013-02-26 20:36:00
2:44 PM,30.2,30.2,100,29.59,0.2,NE,24.2,39.1,0.04,Snow,Heavy Snow,40,2013-02-26 20:44:00
2:54 PM,30.9,30.0,96,29.61,0.2,NE,21.9,35.7,0.05,Snow,Heavy Snow,40,2013-02-26 20:54:00
3:03 PM,30.2,30.2,100,29.59,0.2,NE,26.5,32.2,0.02,Snow,Heavy Snow,40,2013-02-26 21:03:00
3:13 PM,32.0,30.2,93,29.59,0.2,NE,24.2,33.4,0.03,Snow,Heavy Snow,40,2013-02-26 21:13:00
3:52 PM,32.0,30.2,93,29.59,0.5,NE,24.2,31.1,0.06,Snow,Snow,40,2013-02-26 21:52:00
3:54 PM,32.0,28.9,88,29.61,0.5,NE,21.9,31.1,0.06,Snow,Snow,40,2013-02-26 21:54:00
4:54 PM,32.0,28.9,88,29.62,0.8,NNE,20.7,31.1,0.02,Snow,Light Snow,30,2013-02-26 22:54:00
5:54 PM,32.0,30.0,92,29.62,1.0,NNE,20.7,-,0.01,Snow,Light Snow,30,2013-02-26 23:54:00
6:54 PM,33.1,30.9,92,29.63,1.0,NE,24.2,29.9,0.00,Snow,Light Snow,40,2013-02-27 00:54:00
7:31 PM,33.8,30.2,87,29.60,0.8,NE,19.6,-,0.01,Snow,Light Snow,40,2013-02-27 01:31:00
7:38 PM,33.8,30.2,87,29.60,0.8,NE,19.6,27.6,0.02,Snow,Light Snow,40,2013-02-27 01:38:00
7:51 PM,33.8,30.2,87,29.60,1.0,NE,19.6,25.3,0.03,Snow,Light Snow,40,2013-02-27 01:51:00
7:54 PM,33.1,30.9,92,29.62,2.5,NE,18.4,25.3,0.03,Snow,Light Snow,40,2013-02-27 01:54:00
8:08 PM,33.8,30.2,87,29.60,2.5,NNE,18.4,25.3,0.00,Snow,Light Snow,30,2013-02-27 02:08:00
8:54 PM,34.0,30.0,85,29.61,2.5,NNE,19.6,-,0.00,Snow,Light Snow,30,2013-02-27 02:54:00
9:25 PM,33.8,30.2,87,29.59,7.0,NNE,17.3,26.5,0.00,Snow,Light Snow,30,2013-02-27 03:25:00
9:54 PM,33.1,30.0,89,29.61,10.0,NNE,19.6,-,0.00,,Overcast,30,2013-02-27 03:54:00
10:54 PM,33.1,30.0,89,29.62,6.0,NNE,16.1,-,0.00,Snow,Light Snow,30,2013-02-27 04:54:00
11:54 PM,33.1,30.0,89,29.61,7.0,NNE,15.0,-,0.00,Snow,Light Snow,20,2013-02-27 05:54:00